Overview Statistics Trail Chart Weather Telemetry Raw packets
 

This is the latest recevied weather packets stored in our database for station/object KD7AWQ. If no packets are shown the sender has not sent any weather packets the latest 10 day(s).

<< 21 22 23 24 25 26 27 >>
Time Temp. Humidity Pressure Rain* Wind** Luminosity Snow
1788297241 30.56° C 30% 1188 hPa 0 mm - 163 W/m² -
1788296937 30.56° C 30% 1188 hPa 0 mm - 198 W/m² -
1788296632 30.56° C 30% 1187.9 hPa 0 mm - 233 W/m² -
1788296329 31.11° C 30% 1188.1 hPa 0 mm - 235 W/m² -
1788296023 31.11° C 30% 1188.1 hPa 0 mm - 292 W/m² -
1788295718 31.11° C 30% 1188.2 hPa 0 mm - 167 W/m² -
1788295415 31.67° C 30% 1188.4 hPa 0 mm - 873 W/m² -
1788295114 31.67° C 30% 1188.2 hPa 0 mm - 1098 W/m² -
1788294809 30.56° C 31% 1188.6 hPa 0 mm - 1085 W/m² -
1788294504 30° C 32% 1188.4 hPa 0 mm - 1060 W/m² -
1788294199 30° C 34% 1188.4 hPa 0 mm - 1047 W/m² -
1788293895 30° C 34% 1188.7 hPa 0 mm - 1021 W/m² -
1788293594 30° C 35% 1188.9 hPa 0 mm - 1018 W/m² -
1788293294 29.44° C 35% 1188.8 hPa 0 mm - 1020 W/m² -
1788292990 30° C 36% 1188.9 hPa 0 mm - 1018 W/m² -
1788292688 30° C 35% 1188.9 hPa 0 mm - 1019 W/m² -
1788292381 29.44° C 36% 1189.1 hPa 0 mm - 1018 W/m² -
1788292077 29.44° C 36% 1189.1 hPa 0 mm - 1019 W/m² -
1788291772 29.44° C 36% 1189.3 hPa 0 mm - 1021 W/m² -
1788291468 29.44° C 37% 1189.1 hPa 0 mm - 1019 W/m² -
1788291166 30° C 36% 1189.6 hPa 0 mm - 1022 W/m² -
1788290861 28.89° C 37% 1189.5 hPa 0 mm - 1020 W/m² -
1788290557 29.44° C 37% 1189.6 hPa 0 mm - 1020 W/m² -
1788290253 29.44° C 36% 1189.5 hPa 0 mm - 1023 W/m² -
1788289949 28.89° C 38% 1189.8 hPa 0 mm - 1044 W/m² -

* Rain latest hour (hover to see other rain measurements)
** Current wind speed in m/s (hover to see current wind gust speed)